User: anonymous   Login
Location: *
(2.5500°S, 65.9667°W)
Time: 18:11:56
(UTC+00:00)
Language:

SWIFT - Orbit

View from above orbital plane
View from above orbital plane
View from above satellite
View from above satellite

Ground track
Ground track

The orbit data is extracted from the following two-line orbital elements,

1 28485U 04047A   22024.86708339  .00001600  00000-0  77428-4 0  9995
2 28485  20.5557 237.6068 0010700 279.3346  80.5878 15.05478569941872
Epoch (UTC): 24 January 2022 20:48:36
Eccentricity: 0.0010700
inclination: 20.5557°
perigee height: 542 km
apogee height: 557 km
right ascension of ascending node: 237.6068°
argument of perigee: 279.3346°
revolutions per day: 15.05478569
mean anomaly at epoch: 80.5878°
orbit number at epoch: 94187

The dashed part of the orbit path shows where the satellite is in the earth's shadow,  

DLR